This is the latest recevied weather packets stored in our database for station/object HP3ICC-14. If no packets are shown the sender has not sent any weather packets the latest 10 day(s).
| Time | Temp. | Humidity | Pressure | Rain* | Wind** | Luminosity | Snow |
|---|---|---|---|---|---|---|---|
| 1777610460 | 28.33° C | 72% | 1008 hPa | 0 mm | - | - | - |
| 1777610400 | 28.33° C | 72% | 1008 hPa | 0 mm | - | - | - |
| 1777609260 | 28.89° C | 72% | 1008 hPa | 0.76 mm | - | - | - |
| 1777609200 | 28.89° C | 72% | 1008 hPa | 0.76 mm | - | - | - |
| 1777608060 | 23.89° C | 61% | 1008 hPa | 0.51 mm | - | - | - |
| 1777607999 | 23.89° C | 61% | 1008 hPa | 0.51 mm | - | - | - |
| 1777606859 | 24.44° C | 61% | 1008 hPa | 0 mm | - | - | - |
| 1777606799 | 24.44° C | 61% | 1008 hPa | 0 mm | - | - | - |
| 1777605659 | 25° C | 61% | 1008 hPa | 0.25 mm | - | - | - |
| 1777605598 | 25° C | 61% | 1008 hPa | 0.25 mm | - | - | - |
| 1777604458 | 25.56° C | 61% | 1008 hPa | 1.27 mm | - | - | - |
| 1777604398 | 25.56° C | 61% | 1008 hPa | 1.27 mm | - | - | - |
| 1777603258 | 26.11° C | 61% | 1008 hPa | 1.78 mm | - | - | - |
| 1777603197 | 26.11° C | 61% | 1008 hPa | 1.78 mm | - | - | - |
| 1777602057 | 26.67° C | 61% | 1007 hPa | 2.79 mm | - | - | - |
| 1777601997 | 26.67° C | 61% | 1007 hPa | 2.79 mm | - | - | - |
| 1777600857 | 27.22° C | 61% | 1007 hPa | 2.79 mm | - | - | - |
| 1777600796 | 27.22° C | 61% | 1007 hPa | 2.79 mm | - | - | - |
| 1777599656 | 27.78° C | 61% | 1007 hPa | 3.3 mm | - | - | - |
| 1777599596 | 27.78° C | 61% | 1007 hPa | 3.3 mm | - | - | - |
| 1777598456 | 28.33° C | 61% | 1006 hPa | 1.78 mm | - | - | - |
| 1777598395 | 28.33° C | 61% | 1006 hPa | 1.78 mm | - | - | - |
| 1777597255 | 28.89° C | 61% | 1006 hPa | 3.3 mm | - | - | - |
| 1777597195 | 28.89° C | 61% | 1006 hPa | 3.3 mm | - | - | - |
| 1777596055 | 29.44° C | 61% | 1006 hPa | 4.32 mm | - | - | - |
* Rain latest hour (hover to see other rain measurements)
** Current wind speed in m/s (hover to see current wind gust speed)